Flag for Switzerland Weather past 2 weeks in Olten, Solothurn, Switzerland

Now
63 °F

Mild.


Feels Like: 63 °F
Forecast: 47 / 65 °F
Wind: 2 mph from Southeast

Location: Wynau

Current Time: Apr 26, 2015 at 2:01:46 PM

Latest Report: Apr 26, 2015 at 1:00 PM


Visibility: N/A

Pressure: 29.78 "Hg

Humidity: 69%

Dew point: 53 °F

Location of OltenLocation

Historic Weather in Olten — Graph

°F

Olten temperature yesterday

Maximum temperature yesterday: 63 °F (at 1:00 PM)
Minimum temperature yesterday: 43 °F (at 3:00 AM)
Average temperature yesterday: 53 °F

Past Weeks' High & Low Weather Summary

 TemperatureHumidityPressure
High73 °F (Apr 15, 5:00 PM)100% (Apr 12, 7:00 AM)30.51 "Hg (Apr 12, 7:00 AM)
Low34 °F (Apr 20, 7:00 AM)18% (Apr 22, 6:00 PM)29.83 "Hg (Apr 26, 12:00 PM)
Average53 °F67%30.15 "Hg
* Reported Apr 11 12:00 Noon — Apr 26 12:00 Noon, Olten, Weather by CustomWeather, © 2015

Note: Actual official high and low records may vary slightly from our data, if they occured in-between our weather recording intervals... More about our weather records

Advertising

Olten weather history for previous 24 hours

 ConditionsComfort  
Time TempWeatherWind HumidityBarometerVisibility
12:00 PM
Sun, Apr 26
60 °FCool.2 mph72%29.83 "HgN/A
11:00 AM56 °FCool.1 mph83%29.85 "HgN/A
10:00 AM52 °FCool.1 mph88%29.88 "HgN/A
9:00 AM51 °FCool.2 mph90%29.88 "HgN/A
8:00 AM49 °FCool.1 mph94%29.89 "HgN/A
7:00 AM46 °FCool.1 mph99%29.90 "HgN/A
6:00 AM47 °FCool.1 mph92%29.90 "HgN/A
4:00 AM49 °FCool.2 mph95%29.92 "HgN/A
3:00 AM51 °FCool.3 mph94%29.93 "HgN/A
2:00 AM51 °FCool.6 mph93%29.93 "HgN/A
1:00 AM53 °FCool.7 mph91%29.94 "HgN/A
12:00 AM53 °FCool.5 mph91%29.93 "HgN/A
11:00 PM
Sat, Apr 25
53 °FCool.6 mph89%29.93 "HgN/A
10:00 PM54 °FCool.3 mph91%29.93 "HgN/A
9:00 PM55 °FCool.3 mph91%29.91 "HgN/A
8:00 PM60 °FCool.2 mph67%29.86 "HgN/A
7:00 PM59 °FCool.1 mph75%29.85 "HgN/A
6:00 PM63 °FMild.5 mph58%29.85 "HgN/A
5:00 PM61 °FCool.3 mph64%29.86 "HgN/A
4:00 PM60 °FCool.3 mph67%29.88 "HgN/A
3:00 PM61 °FRefreshingly cool.13 mph56%29.89 "HgN/A
2:00 PM63 °FMild.5 mph56%29.87 "HgN/A
Weather by CustomWeather, © 2015

See weather overviewHow to use our weather pages